User: anonymous   Login
Location: NJAA Observatory
(40.6819°N, 74.8979°W)
Time: 10:41:39
(UTC-04:00)
Language:

Cosmos 1633 - Orbit

View from above orbital plane
View from above orbital plane
View from above satellite
View from above satellite

Ground track
Ground track

The orbit data is extracted from the following two-line orbital elements,

1 15592U 85020A   16241.12472541  .00001681  00000-0  61395-4 0  9991
2 15592  82.5360 252.6859 0015611 128.8378 231.4257 15.27272075719544
Epoch (UTC): 28 August 2016 02:59:36
Eccentricity: 0.0015611
inclination: 82.5360°
perigee height: 473 km
apogee height: 494 km
right ascension of ascending node: 252.6859°
argument of perigee: 128.8378°
revolutions per day: 15.27272075
mean anomaly at epoch: 231.4257°
orbit number at epoch: 71954

The dashed part of the orbit path shows where the satellite is in the earth's shadow,  

DLR